This is the latest recevied weather packets stored in our database for station/object IU0SZS-10. If no packets are shown the sender has not sent any weather packets the latest 10 day(s).
| Time | Temp. | Humidity | Pressure | Rain* | Wind** | Luminosity | Snow |
|---|---|---|---|---|---|---|---|
| 1777110127 | 16.11° C | 31% | 918.1 hPa | - | - | - | - |
| 1777109227 | 15.56° C | 33% | 918.1 hPa | - | - | - | - |
| 1777108363 | 15.56° C | 27% | 918.1 hPa | - | - | - | - |
| 1777108326 | 15.56° C | 27% | 918.1 hPa | - | - | - | - |
| 1777107480 | 15° C | 30% | 918.2 hPa | - | - | - | - |
| 1777107426 | 15° C | 30% | 918.2 hPa | - | - | - | - |
| 1777106526 | 14.44° C | 37% | 918.2 hPa | - | - | - | - |
| 1777105625 | 13.33° C | 43% | 918.2 hPa | - | - | - | - |
| 1777104725 | 14.44° C | 43% | 918.2 hPa | - | - | - | - |
| 1777103825 | 13.89° C | 44% | 918 hPa | - | - | - | - |
| 1777103001 | 13.33° C | 44% | 918 hPa | - | - | - | - |
| 1777102921 | 13.33° C | 44% | 918 hPa | - | - | - | - |
| 1777102020 | 13.33° C | 43% | 918 hPa | - | - | - | - |
| 1777101120 | 13.33° C | 43% | 918.1 hPa | - | - | - | - |
| 1777100220 | 12.22° C | 47% | 918.1 hPa | - | - | - | - |
| 1777099320 | 11.67° C | 45% | 918.2 hPa | - | - | - | - |
| 1777098416 | 11.67° C | 46% | 918 hPa | - | - | - | - |
| 1777097516 | 11.11° C | 48% | 918 hPa | - | - | - | - |
| 1777096616 | 11.11° C | 46% | 917.8 hPa | - | - | - | - |
| 1777095715 | 10.56° C | 45% | 917.6 hPa | - | - | - | - |
| 1777094815 | 10.56° C | 47% | 917.7 hPa | - | - | - | - |
| 1777093915 | 10° C | 45% | 917.7 hPa | - | - | - | - |
| 1777093015 | 9.44° C | 47% | 917.5 hPa | - | - | - | - |
| 1777092115 | 9.44° C | 48% | 917.4 hPa | - | - | - | - |
| 1777091215 | 9.44° C | 49% | 917.4 hPa | - | - | - | - |
* Rain since midnight (hover to see other rain measurements)
** Current wind speed in m/s (hover to see current wind gust speed)